Wind_Speed
1 2 2 3 4 4 2 5 2 5 3 5 3 8 10 5 3 3 8 10 17 14 10 9 7 5 5 3 4 3 5 6 6 6 6 6 7 8 9 10 10 9 10 9 8 7 7 8 7
1 2 3 2 4 2 4 5 6 4 10 11 9 6 8 5 5 10 10 19 17 15 11 9 8 7 7 7 7 7 5 5 4 5 4 5 5 7 8 8 8 8 9 8 7 7 5 6 6
2 2 3 4 3 4 3 1 2 10 17 3 6 5 4 6 8 6 18 21 17 15 10 9 8 8 9 8 8 8 7 5 4 3 4 4 3 5 6 7 7 7 7 7 5 5 4 10 8
3 5 4 3 4 4 5 5 5 11 4 5 7 9 4 5 8 13 24 20 18 14 10 8 7 8 8 7 7 6 6 5 4 3 3 3 3 3 4 5 5 5 5 5 4 4 4 7 6
4 3 3 1 4 4 4 2 4 2 4 3 2 6 4 4 17 27 22 19 17 14 11 9 8 8 7 6 6 6 5 4 3 2 2 1 2 3 4 4 4 4 5 4 3 3 3 6 4
4 3 4 1 3 2 3 7 4 4 5 6 7 5 3 15 25 24 20 16 14 14 12 9 8 7 5 5 5 3 3 3 2 2 1 0 0 2 3 4 4 4 3 3 2 3 4 4 2
5 3 3 3 2 1 2 4 4 5 5 4 4 5 5 9 22 22 19 17 15 14 11 10 8 6 4 4 4 3 1 0 0 1 1 1 1 3 3 4 5 5 5 4 1 1 2 2 2
4 3 1 3 4 4 2 3 2 6 4 3 5 6 8 14 25 23 19 16 15 12 9 8 6 5 3 3 2 2 1 1 2 2 1 0 0 3 2 4 5 6 5 4 3 2 1 1 2
4 3 2 5 6 4 3 3 3 4 5 3 4 3 14 25 24 21 18 16 14 10 8 8 5 4 2 2 1 1 1 1 1 1 1 2 3 3 4 4 5 6 6 4 3 1 2 3 4
4 3 6 3 6 6 4 4 5 2 4 5 11 13 22 21 20 20 17 14 14 12 10 10 7 6 5 3 3 5 5 5 4 4 4 5 5 6 7 7 8 6 7 5 2 1 1 2 3
4 5 4 1 3 5 6 4 3 8 2 4 19 16 14 18 18 18 18 22 17 12 13 12 12 9 9 8 7 8 8 10 9 9 9 8 8 9 9 9 8 7 8 8 6 4 3 3 1
1 1 1 5 6 5 5 5 4 2 1 14 10 13 9 10 15 17 15 16 14 15 15 12 10 8 9 9 7 7 7 8 9 11 14 13 13 11 11 12 10 10 11 12 12 10 8 7 5
4 3 5 5 9 7 7 5 6 5 7 8 10 11 10 11 16 18 23 22 20 16 14 10 8 7 10 10 11 10 9 7 7 10 11 15 16 16 14 16 12 12 13 15 16 15 15 12 11
2 5 8 3 5 5 9 4 4 3 5 7 9 9 11 12 18 15 14 18 18 14 14 11 9 6 8 10 11 13 13 11 11 10 10 13 16 19 19 17 17 18 17 17 17 18 18 20 18
8 5 3 0 4 4 11 3 2 10 8 9 10 9 7 10 16 19 23 21 19 15 16 14 11 8 6 5 6 6 7 8 10 12 13 16 17 20 23 25 24 23 23 22 20 19 19 20 23
1 5 3 5 6 6 3 3 3 9 11 12 9 8 9 10 15 21 20 15 18 16 18 14 13 11 8 7 6 8 10 11 11 14 16 16 17 17 19 22 24 26 28 25 22 21 22 22 21
4 3 4 3 9 6 4 3 8 10 11 11 8 7 7 7 10 19 19 17 19 17 16 16 16 14 10 7 6 9 11 10 7 5 7 8 8 7 10 16 17 16 21 27 30 28 24 24 22
5 4 4 6 5 5 6 4 14 15 13 12 8 8 8 11 9 17 17 18 18 17 13 8 9 10 9 7 6 5 8 7 8 8 9 9 9 8 8 8 9 12 15 17 21 23 28 27 21
2 4 6 4 5 5 9 6 15 15 13 11 8 9 8 9 9 19 14 13 10 7 12 14 13 11 9 6 5 5 6 5 8 10 11 11 10 9 9 8 8 8 8 8 8 10 15 22 26
6 5 9 4 2 4 5 6 3 9 18 15 15 9 9 5 6 12 11 13 19 22 20 18 15 12 11 9 7 5 4 3 6 10 10 10 10 10 11 11 12 12 12 11 10 9 8 8 12
6 5 5 7 4 5 6 4 3 4 4 6 6 11 7 10 9 8 16 24 23 22 19 17 14 11 11 11 10 10 8 7 9 12 12 12 13 14 14 14 15 15 15 14 13 11 7 6 12
3 3 4 3 3 4 4 4 6 7 6 7 8 8 8 8 8 8 16 19 20 18 16 13 12 11 12 12 15 14 12 8 6 8 11 14 16 16 16 14 14 14 13 14 14 13 12 9 9
5 3 3 2 2 2 2 1 6 5 4 5 4 6 7 11 13 12 15 20 17 17 15 12 10 11 12 15 16 13 9 7 6 8 10 12 15 16 16 13 14 14 12 12 13 13 13 12 12
3 4 7 5 3 1 7 5 4 2 3 7 12 14 13 12 11 11 15 18 17 15 13 10 9 11 12 14 15 13 7 6 7 8 12 14 15 18 18 16 15 15 15 15 15 14 14 15 14
5 5 3 3 2 5 2 3 3 7 8 14 16 12 8 3 2 7 9 12 14 14 11 9 7 10 12 16 16 14 10 8 7 8 11 14 17 21 22 19 18 18 17 17 16 15 16 16 17
2 5 5 5 3 5 3 2 2 2 8 13 18 10 7 5 10 6 11 13 13 12 9 7 6 10 13 15 15 14 10 8 7 9 11 14 17 19 21 21 19 20 19 16 15 15 16 16 15
2 2 2 3 3 2 2 2 2 5 7 10 13 12 10 12 11 6 9 10 11 9 7 5 6 10 12 12 13 9 8 9 11 13 15 18 19 18 22 21 19 21 19 16 15 15 17 16 16
5 3 3 3 1 4 3 3 3 8 8 7 8 8 5 4 3 2 5 8 9 8 6 5 6 10 13 12 11 9 11 12 15 17 19 20 19 18 22 21 21 19 18 19 20 19 18 19 19
6 4 5 4 3 3 2 5 5 6 11 10 7 8 11 6 4 4 6 8 9 8 6 3 4 10 13 14 12 13 14 15 17 19 20 19 16 23 25 24 21 19 19 18 17 17 18 18 19
4 3 4 3 2 3 2 2 9 6 6 6 7 5 4 5 3 3 5 6 10 8 5 1 4 9 14 16 15 15 16 16 17 17 15 18 19 24 23 23 21 19 20 19 18 18 18 19 21
Wind_Direction
275 295 2 44 42 58 278 267 235 148 104 333 62 93 106 44 32 121 142 156 149 140 137 131 125 121 146 187 135 137 105 97 91 81 80 72 58 48 41 41 42 40 41 44 54 92 100 111 100
69 70 57 77 88 59 278 262 197 135 139 114 73 71 46 76 57 111 114 144 144 139 136 135 124 123 123 130 120 118 127 104 93 84 86 73 57 47 41 41 42 37 45 47 61 87 110 120 110
112 112 81 97 114 172 238 214 127 125 160 91 110 43 94 104 125 129 146 146 142 130 132 129 127 129 126 130 130 133 132 120 111 94 91 75 64 39 42 43 43 40 40 48 65 76 131 142 164
145 30 34 95 239 246 227 140 142 137 118 62 118 84 80 3 139 144 148 143 134 131 139 134 133 133 131 128 134 134 135 133 125 106 106 69 30 18 29 36 38 40 45 51 42 37 151 169 181
51 58 69 84 266 289 321 98 139 320 88 56 158 108 70 39 130 142 148 144 136 140 141 134 133 133 139 139 140 145 145 145 135 135 125 94 33 13 17 21 23 23 30 40 55 33 197 171 190
40 95 58 234 264 318 39 69 71 35 70 124 87 93 76 136 135 147 147 143 149 149 144 136 135 136 128 135 153 152 151 155 173 172 176 166 291 356 11 10 14 13 19 14 24 55 106 149 156
120 88 215 245 198 128 153 85 48 99 98 57 105 96 127 163 148 146 146 159 159 154 148 144 142 139 120 97 116 119 148 314 206 256 276 324 41 41 27 33 30 20 3 1 22 64 86 120 104
118 98 176 252 185 193 330 72 17 45 70 87 138 159 171 176 157 156 159 152 152 155 153 149 150 135 119 99 98 80 59 315 322 330 315 291 39 19 37 31 23 17 12 4 358 348 64 73 98
126 64 237 226 163 174 152 112 27 63 86 65 306 108 140 158 154 150 144 149 157 161 167 169 158 163 168 185 189 250 306 289 309 284 278 246 286 320 325 319 341 346 345 345 336 33 82 62 70
115 133 231 211 151 166 115 103 146 107 104 73 92 95 125 138 145 142 151 161 176 184 190 194 196 198 196 212 245 267 282 278 263 260 254 244 260 283 291 292 301 314 327 321 319 262 352 14 52
166 200 197 93 135 104 115 106 112 131 125 174 142 140 134 135 147 160 171 174 178 198 202 204 212 225 239 243 257 255 269 271 262 256 252 255 259 277 271 276 278 295 296 296 282 263 286 300 27
211 148 135 126 139 121 123 106 66 47 75 135 140 134 127 152 168 178 171 175 188 206 211 211 210 232 250 257 249 237 246 262 251 271 250 251 261 263 271 264 273 280 286 289 275 264 263 269 267
156 161 64 93 104 79 86 66 120 78 109 120 135 140 161 179 187 190 183 184 194 199 196 195 184 220 239 249 266 268 276 282 276 266 256 253 258 262 265 267 266 272 280 273 270 261 261 259 254
111 81 118 135 123 111 112 152 88 231 135 141 161 180 184 191 193 196 200 200 197 192 189 184 196 219 245 254 264 275 286 289 285 285 280 280 268 263 268 274 273 272 273 270 270 267 265 262 259
131 95 28 196 158 117 127 47 211 157 157 178 195 200 204 212 192 189 196 188 183 184 182 194 205 215 225 241 273 300 303 293 289 281 286 291 289 286 275 276 279 278 277 272 267 267 263 265 254
237 86 144 238 183 173 201 220 172 162 169 200 209 213 213 220 184 190 192 186 184 187 190 203 212 221 231 255 290 324 332 320 316 310 303 298 293 286 282 281 279 284 282 275 270 271 267 263 262
355 226 212 260 195 161 230 153 191 175 191 206 209 215 216 184 191 197 192 186 185 195 197 208 216 230 248 269 297 325 329 335 348 26 19 12 348 307 294 287 283 288 283 272 269 276 279 270 262
213 226 251 232 207 168 185 188 173 187 193 208 205 198 187 182 185 177 177 176 183 185 193 208 222 241 256 278 310 3 68 53 63 46 33 28 27 21 12 359 326 305 289 280 269 265 265 265 278
289 217 234 247 229 148 203 166 187 186 200 210 191 189 195 197 182 179 172 167 159 130 122 117 128 98 101 95 66 41 36 28 30 13 1 358 356 357 351 356 345 346 337 326 318 286 272 266 257
255 254 267 275 235 145 154 220 179 185 207 202 191 180 203 167 161 114 127 143 130 124 119 113 103 92 81 72 69 54 52 351 347 355 348 351 349 349 348 344 341 335 324 319 325 323 296 285 272
247 210 235 210 157 39 113 342 205 221 232 207 231 185 188 185 139 112 117 124 119 121 122 111 101 89 72 52 35 17 5 9 350 13 14 10 354 346 341 336 327 320 318 314 314 316 323 305 272
242 231 203 175 149 218 172 243 237 216 214 189 170 170 174 137 117 123 125 123 124 123 119 112 102 77 57 34 13 11 20 26 16 10 4 0 1 356 352 350 346 337 328 317 307 300 295 296 284
239 67 143 168 135 59 185 114 260 150 187 211 218 169 153 138 138 135 131 131 129 133 123 112 90 68 48 23 13 11 24 18 359 348 352 354 353 355 353 347 340 334 322 315 311 311 307 294 283
127 67 32 37 57 352 250 163 296 318 345 118 87 56 25 344 104 101 130 138 136 133 123 113 88 69 39 19 13 7 7 357 341 351 349 347 348 351 348 340 335 329 319 311 304 298 297 292 289
68 65 318 329 2 222 293 81 247 338 340 130 105 87 50 36 21 129 139 167 137 136 128 112 82 57 25 13 10 5 358 341 339 345 340 340 338 343 343 334 331 327 319 309 294 289 294 290 279
188 158 160 231 240 264 342 249 304 80 77 94 99 99 68 8 271 203 178 147 139 138 130 111 75 37 19 14 9 7 2 358 345 331 322 319 322 328 328 324 322 323 317 309 299 286 290 292 279
185 206 201 121 21 33 193 58 278 135 131 117 120 137 172 215 216 188 154 139 139 141 126 125 55 28 13 6 359 353 355 339 325 320 312 311 312 313 322 314 312 318 312 308 304 294 289 289 281
52 27 25 15 346 266 286 245 240 184 180 168 158 146 190 237 216 153 134 148 156 151 152 123 42 19 11 356 349 339 330 324 319 315 306 315 308 312 320 316 311 312 304 301 300 290 288 287 281
5 20 31 109 98 189 253 262 337 198 150 145 150 155 194 191 187 154 157 170 165 174 169 132 27 14 8 358 339 330 326 327 328 325 319 319 316 323 325 313 304 310 311 307 305 295 289 286 289
91 135 119 123 336 237 240 274 349 19 95 145 166 150 166 145 174 162 130 174 184 190 186 206 12 12 4 352 333 319 326 331 331 336 336 336 333 327 329 325 320 308 312 308 302 301 294 287 286
Height
776 778 778 778 803 809 812 798 776 786 796 790 788 792 805 809 808 819 817 818 821 824 825 827 827 825 827 828 828 829 830 830 830 829 829 828 827 825 825 823 823 823 823 824 823 822 824 823 824
776 777 778 788 815 822 809 785 782 780 789 788 789 794 800 811 808 814 817 821 823 825 826 827 828 828 829 829 830 831 831 832 832 831 830 830 828 826 826 825 824 825 823 825 825 824 824 825 826
776 777 786 803 823 821 807 779 782 784 785 785 798 801 804 813 814 815 817 821 823 825 828 829 829 830 831 830 830 831 832 832 832 832 831 831 830 828 826 826 825 825 825 826 826 825 824 825 826
775 778 790 806 806 797 787 778 780 786 790 789 794 806 807 811 811 813 819 821 824 826 828 829 830 831 832 832 833 832 832 832 832 832 832 832 831 830 828 827 827 826 826 826 826 826 826 826 827
776 786 807 810 802 789 783 777 782 786 789 794 792 807 811 813 812 817 820 823 824 827 829 830 831 832 833 833 833 833 833 834 833 833 833 833 832 830 829 828 828 827 826 826 826 826 826 827 828
787 794 814 816 802 786 782 780 782 792 792 796 799 803 814 814 813 817 821 824 826 827 829 830 831 832 833 834 834 834 833 833 834 834 833 833 832 831 830 829 828 828 827 827 826 826 827 828 828
789 801 807 802 800 793 787 781 790 793 793 800 798 808 815 816 817 818 822 824 826 828 830 831 832 832 833 833 833 833 834 835 835 835 834 834 833 832 831 830 829 829 828 828 828 828 828 828 829
783 793 797 798 804 796 785 787 790 793 800 797 798 808 813 811 816 820 822 826 828 830 831 833 834 834 835 834 835 834 834 835 836 836 835 835 835 834 833 831 830 830 829 829 829 829 829 830 829
776 802 807 793 793 790 783 790 795 796 799 801 801 800 801 811 817 822 825 828 829 831 832 833 835 835 835 835 835 835 835 835 836 836 836 835 835 835 834 833 831 831 830 829 829 829 830 830 830
785 805 792 774 778 784 785 788 795 799 802 805 804 805 809 814 818 822 824 826 828 829 830 832 832 834 835 835 834 834 834 835 835 836 836 835 835 834 834 833 832 831 831 830 830 830 830 830 831
781 790 774 774 777 779 789 795 795 803 807 803 805 807 812 817 820 822 823 822 825 827 829 830 830 833 834 834 833 833 834 833 834 834 835 834 834 833 833 832 831 830 831 831 831 830 830 830 830
780 772 774 778 777 780 788 793 802 803 802 800 805 807 813 819 819 819 821 823 824 824 825 827 829 833 833 833 832 831 831 830 831 831 832 833 832 832 831 830 830 829 830 830 830 830 829 829 829
777 777 779 780 781 788 789 798 801 806 803 804 807 810 814 817 817 816 815 816 818 823 825 827 829 831 832 832 831 831 830 830 830 830 830 830 830 829 830 829 827 827 827 828 828 828 828 828 828
771 780 786 784 786 787 794 801 796 807 805 809 809 811 811 812 812 814 816 816 818 822 824 826 827 830 831 831 830 829 829 829 829 829 830 829 829 828 828 827 826 825 825 825 825 825 825 825 825
777 788 785 786 786 792 792 804 805 802 807 812 811 812 813 812 811 812 811 813 816 820 822 823 825 827 829 830 830 829 829 828 828 829 828 827 826 826 826 825 824 823 823 822 822 822 822 821 821
780 789 803 787 786 790 790 807 803 803 807 811 811 811 811 810 809 811 811 813 816 819 819 821 823 825 827 829 829 828 827 827 827 826 824 823 822 821 821 820 819 819 819 820 819 819 819 818 818
794 805 801 789 784 788 795 803 800 802 806 809 810 810 810 810 811 810 811 812 814 816 817 819 822 825 827 829 829 828 827 826 825 823 821 819 818 816 817 816 815 814 812 813 815 814 815 815 814
803 803 798 797 786 787 794 795 795 798 802 803 807 807 806 808 807 807 809 811 813 816 818 820 822 824 826 827 827 827 826 826 824 822 821 819 817 816 815 813 811 809 810 809 808 808 808 809 809
784 792 796 788 780 786 789 795 794 795 800 801 803 806 807 806 806 807 811 813 816 818 819 820 821 823 825 826 827 827 827 826 824 822 821 819 817 816 814 813 812 811 809 808 807 803 803 803 802
786 792 793 782 774 781 794 795 793 796 792 792 796 803 806 807 807 809 811 814 817 819 820 822 823 825 826 827 827 827 826 825 824 822 820 818 817 815 813 812 810 809 808 806 804 802 800 799 799
784 790 789 785 779 787 791 799 795 792 794 793 797 795 800 803 806 811 815 816 817 820 821 822 825 827 826 826 826 825 823 823 821 820 818 817 816 815 813 811 809 808 806 804 803 801 799 798 796
783 769 775 781 789 802 785 813 798 793 793 791 795 797 800 801 807 811 814 818 820 822 822 824 825 825 825 825 824 822 820 820 820 819 818 817 815 814 812 810 808 806 804 803 801 799 798 797 795
779 770 778 782 792 789 791 807 795 790 797 797 800 799 798 799 805 811 815 818 822 822 822 824 825 824 825 824 822 821 819 819 819 818 816 815 814 812 810 808 806 804 802 801 799 797 796 794 793
770 779 791 798 805 818 795 805 818 804 798 797 802 811 822 826 809 815 821 821 821 822 822 824 825 825 824 823 821 820 819 818 817 816 814 813 812 810 808 806 804 801 799 798 796 794 793 791 790
781 797 818 824 832 830 795 807 815 808 799 795 808 820 832 834 830 823 824 825 821 823 824 824 826 824 823 821 819 818 818 817 816 814 813 811 809 807 805 803 800 798 796 794 792 791 789 787 786
786 794 823 822 824 825 794 812 812 811 811 810 809 826 832 838 837 827 826 821 822 824 825 824 826 823 822 820 818 817 817 815 814 813 811 809 807 806 803 800 797 795 792 790 788 786 785 783 782
786 795 791 803 814 816 811 817 810 815 815 814 818 825 834 837 828 826 825 822 823 826 825 826 824 823 821 819 818 817 816 815 813 812 810 807 805 803 800 797 794 791 788 786 784 782 781 779 778
786 793 809 820 834 841 820 807 822 813 818 819 821 825 831 828 829 827 824 824 826 826 827 825 824 823 821 819 818 817 815 813 811 809 806 804 801 799 796 793 790 787 785 782 780 777 776 774 772
806 814 819 827 859 862 846 836 814 810 810 814 818 821 825 826 827 827 827 826 826 826 825 825 824 823 821 819 817 815 813 811 808 806 803 801 799 796 792 788 785 783 780 778 775 773 770 768 767
804 814 828 845 830 841 849 838 818 808 809 812 816 821 826 826 830 829 826 827 826 825 825 824 824 822 821 818 815 813 811 808 806 803 801 799 796 792 788 783 780 778 776 773 771 768 765 763 762